Regional Weather Roundup
Issued by NWS

Home | Current Version | Previous Version | Graphics & Text | Print | Product List | Glossary On
Versions: 1 2 3 4 5 6 7 8 9 10 11 12 13 14 15 16 17 18 19 20 21 22 23 24 25 26 27 28 29 30 31 32 33 34 35 36 37 38 39 40 41 42 43 44 45 46 47 48 49 50
000
ASUS44 KOUN 211410
RWROK

WEATHER ROUNDUP FOR OKLAHOMA
NATIONAL WEATHER SERVICE NORMAN OK
900 AM CDT THU OCT 21 2021

NOTE: "FAIR" INDICATES FEW OR NO CLOUDS BELOW 12,000 FEET WITH NO
      SIGNIFICANT WEATHER AND/OR OBSTRUCTIONS TO VISIBILITY.

OKZ001>007-009>012-014-015-017-211500-
NORTHWEST OKLAHOMA AND THE PANHANDLE

CITY           SKY/WX    TMP DP  RH WIND       PRES   REMARKS
GAGE           SUNNY     41  38  89 SW6       30.27R FOG
GUYMON         SUNNY     41  37  86 CALM      30.27R
ENID/WOODRING  MOSUNNY   48  41  76 NW7       30.25R
$$

OKZ016-021>023-033>039-044-045-211500-
SOUTHWEST OKLAHOMA

CITY           SKY/WX    TMP DP  RH WIND       PRES   REMARKS
LAWTON/REGL    SUNNY     55  45  68 N9        30.23R
LAWTON/FT SILL SUNNY     54  45  71 N7        30.22R
FREDERICK      SUNNY     53  44  71 W5        30.22R
CLINTON        SUNNY     52  41  66 N6        30.25S
HOBART         SUNNY     53  42  66 NE3       30.25R
ALTUS AFB      SUNNY     53  43  70 NW3       30.23R
$$

OKZ018>020-024>031-211500-
CENTRAL OKLAHOMA

CITY           SKY/WX    TMP DP  RH WIND       PRES   REMARKS
OKLAHOMA CITY  MOSUNNY   51  43  74 NW8       30.25R
OKC/WILEY POST SUNNY     53  42  66 N9        30.25R
OKC/TINKER AFB SUNNY     53  40  62 N8        30.22R
STILLWATER     SUNNY     49  43  80 NW3       30.24R
GUTHRIE          N/A    N/A N/A N/A W3        30.26R
$$

OKZ008-013-054>072-211500-
NORTHEAST OKLAHOMA

CITY           SKY/WX    TMP DP  RH WIND       PRES   REMARKS
TULSA          MOSUNNY   52  44  74 N6        30.22R
TULSA/JONES    SUNNY     53  44  71 CALM      30.23R
PONCA CITY     SUNNY     45  41  86 CALM      30.24R
BARTLESVILLE   SUNNY     48  43  82 N3        30.25R
$$

OKZ032-040>043-046>053-073>077-211500-
SOUTH CENTRAL/SOUTHEAST OKLAHOMA

CITY           SKY/WX    TMP DP  RH WIND       PRES   REMARKS
ARDMORE/DWNTWN SUNNY     58  45  60 NE5       30.22R
MCALESTER      MOSUNNY   57  45  64 VRB7      30.23R
$$




USA.gov is the U.S. government's official web portal to all federal, state and local government web resources and services.